Regional Weather Roundup
Issued by NWS

Home | Current Version | Previous Version | Graphics & Text | Print | Product List | Glossary Off
Versions: 1 2 3 4 5 6 7 8 9 10 11 12 13 14 15 16 17 18 19 20 21 22 23 24 25 26 27 28 29 30 31 32 33 34 35 36 37 38 39 40 41 42 43 44 45 46 47 48 49 50

000
ASUS43 KDMX 240701
RWRIA

WEATHER ROUNDUP FOR IOWA
NATIONAL WEATHER SERVICE DES MOINES IA
200 AM CDT TUE OCT 24 2017

NOTE: "FAIR" INDICATES FEW OR NO CLOUDS BELOW 12,000 FEET WITH NO
SIGNIFICANT WEATHER AND/OR OBSTRUCTIONS TO VISIBILITY.

* - THESE STATIONS ARE NOT NWS STATIONS...THUS NOT UNDER NWS
QUALITY CONTROL.  THEY ALSO DO NOT REPORT WEATHER SUCH
AS PRECIPITATION OR FOG.

IAZ001>003-012>014-020>022-031>034-043>046-240800-
   NORTHWEST IOWA

CITY           SKY/WX    TMP DP  RH WIND       PRES   REMARKS
CARROLL *      CLOUDY    48  36  61 NW22G30   29.93S
CHEROKEE *     CLOUDY    44  31  58 NW24      29.99S
DENISON *      CLOUDY    48  36  61 NW25G36   29.99S
LE MARS *      PTCLDY    45  32  61 NW17G29   30.05R
ORANGE CITY *  PTCLDY    45  34  65 NW10G21   30.04R
SHELDON *      CLEAR     41  30  65 NW14G23   30.00S
SIOUX CITY     CLEAR     45  34  65 NW23G36   30.04R
SPENCER        PTCLDY    43  31  62 NW25G35   29.96R
STORM LAKE *   CLOUDY    46  32  57 N30G38    29.96S
$$

IAZ055>058-069>071-079>083-090>094-240800-
   SOUTHWEST IOWA

CITY           SKY/WX    TMP DP  RH WIND       PRES   REMARKS
ATLANTIC *     CLOUDY    50  36  57 NW18G25   29.96F
AUDUBON *      CLOUDY    48  36  61 NW20G30   29.95F
CLARINDA *       N/A     52  34  50 NW15G23   30.00F
COUNCIL BLFS * CLEAR     48  34  57 NW15G24   30.01S
CRESTON *      MOCLDY    46  36  66 NW18      29.94F
HARLAN  *      CLOUDY    50  36  57 NW20G36   30.01S
LAMONI         CLEAR     47  35  63 NW17G25   29.92F
RED OAK *      PTCLDY    50  34  53 NW16G25   29.99F
SHENANDOAH *   CLOUDY    48  36  61 NW12G18   30.02S
$$

IAZ047>049-059>061-072>074-084-240800-
   CENTRAL IOWA

CITY           SKY/WX    TMP DP  RH WIND       PRES   REMARKS
AMES           CLEAR     46  36  68 NW18G25   29.86F
ANKENY *       CLEAR     46  36  66 NW18G26   29.87F
BOONE *        MOCLDY    46  36  66 NW16      29.86F
CHARITON *     MOCLDY    48  34  57 W14G23    29.86F
DES MOINES     PTCLDY    47  34  60 NW20G26   29.87F
GRINNELL*      CLOUDY    47  32  55 NW23G30   29.81S
KNOXVILLE *    PTCLDY    48  32  53 NW18G25   29.84S
MARSHALLTOWN   LGT RAIN  46  32  58 NW23G31   29.81S
NEWTON *       CLOUDY    48  32  53 NW22G30   29.84S
PELLA *        CLOUDY    48  34  58 NW15G23   29.85S
PERRY *        MOCLDY    49  34  57 NW16G23   29.90S
$$

IAZ004>006-015-016-023>025-035-036-240800-
   NORTH CENTRAL IOWA

CITY           SKY/WX    TMP DP  RH WIND       PRES   REMARKS
ALGONA *       PTCLDY    45  32  61 NW28G36   29.89S
CLARION *      CLEAR     43  34  70 NW22G28   29.86S
ESTHERVILLE    PTCLDY    41  31  67 N31G44    29.94R
FORT DODGE *   CLOUDY    47  31  53 N18G30    29.89F
MASON CITY     CLEAR     41  28  60 NW23G33   29.83F
FOREST CITY *    N/A     41  32  70 NW21G29   29.85S
WEBSTER CITY * CLEAR     45  34  65 NW16G23   29.85S
IOWA FALLS *     N/A     44  32  63 NW14G29   29.84S
$$

IAZ007>011-017>019-026>030-037>042-050>054-066-240800-
   NORTHEAST IOWA

CITY           SKY/WX    TMP DP  RH WIND       PRES   REMARKS
CEDAR RAPIDS   CLOUDY    48  34  58 NW18      29.72F
CHARLES CITY * CLOUDY    45  28  53 NW17G31   29.77F
CLINTON *      CLOUDY    47  40  76 NW16      29.66F
DECORAH *      CLOUDY    45  34  65 NW14G22   29.70S
DUBUQUE        CLOUDY    46  37  71 NW16G26   29.66F
MONTICELLO *   CLOUDY    48  34  57 NW15G22   29.68F
OELWEIN *      CLOUDY    46  32  57 NW17G26   29.73F
WATERLOO       CLOUDY    46  28  49 NW20G31   29.75F
$$

IAZ064-065-067-068-078-240800-
   EAST CENTRAL IOWA

CITY           SKY/WX    TMP DP  RH WIND       PRES   REMARKS
DAVENPORT      CLOUDY    48  35  60 NW14G26   29.70F
IOWA CITY      LGT RAIN  51  34  52 NW16G28   29.74F
MUSCATINE *    CLOUDY    50  36  57 NW15      29.72F
QUAD CITIES    CLOUDY    50  33  52 NW20G28   29.68F
$$

IAZ062-063-075>077-085>089-095>099-240800-
   SOUTHEAST IOWA

CITY           SKY/WX    TMP DP  RH WIND       PRES   REMARKS
BURLINGTON     CLOUDY    50  35  56 NW10G20   29.74F
FAIRFIELD *    CLOUDY    50  32  50 NW16G25   29.77F
FORT MADISON * CLOUDY    52  36  54 NW14G20   29.76F
KEOKUK *       CLOUDY    52  32  46 NW24G33   29.76F
OSKALOOSA *    CLOUDY    49  34  56 NW18G32   29.81F
OTTUMWA        CLOUDY    50  33  52 NW21G30   29.80F
WASHINGTON *   CLOUDY    50  34  53 NW18G32   29.76F
$$

ABBREVIATIONS USED IN REMARKS
   TC - TEMPERATURES IN CELSIUS
  WCI - WIND CHILL INDEX
   HX - HEAT INDEX
  VSB - VISIBILITY
$$





USA.gov is the U.S. government's official web portal to all federal, state and local government web resources and services.